Regional Weather Roundup
Issued by NWS Glasgow, MT

Home | Current Version | Previous Version | Text Only | Print | Product List | Glossary On
Versions: 1 2 3 4 5 6 7 8 9 10 11 12 13 14 15 16 17 18 19 20 21 22 23 24 25 26 27
000
ASUS45 KGGW 192115
RWRGGW
HOURLY REGIONAL WEATHER ROUNDUP FOR NORTHEAST MONTANA
NATIONAL WEATHER SERVICE GLASGOW MONTANA
200 PM MST FRI JAN 19 2018

NOTE: "FAIR" INDICATES FEW OR NO CLOUDS BELOW 12,000 FEET WITH NO
SIGNIFICANT WEATHER AND/OR OBSTRUCTIONS TO VISISBILITY.

NORTHEAST MONTANA


CITY           SKY/WX    TMP DP  RH WIND       PRES   REMARKS
GLASGOW        PTSUNNY   34  27  75 NW6       29.63F
PLENTYWOOD       N/A     35  26  69 NW12G21     N/A
WOLF POINT     CLOUDY    40  30  67 SW7       29.64F
JORDAN           N/A     37  33  85 W7        29.65F
WINNETT          N/A     36  32  85 SW2         N/A
SIDNEY         CLOUDY    39  30  70 SW9       29.65R
GLENDIVE       CLOUDY    38  33  82 SW10      29.66F
MALTA            N/A     39  30  70 S6          N/A
SCOBEY           N/A     33  20  59 CALM      29.61R

FORT PECK REPORTS


CITY           SKY/WX    TMP DP  RH WIND       PRES   REMARKS
FORT PECK        N/A     36  32  85 S12         N/A
THE PINES        N/A     43  30  61 SW6         N/A

SOUTHEAST MONTANA


CITY           SKY/WX    TMP DP  RH WIND       PRES   REMARKS
BILLINGS       CLOUDY    38  35  89 SW10      29.68F
MILES CITY     LGT RAIN  36  35  96 SW6       29.68F
BAKER          CLOUDY    37  34  89 NW10      29.66F
LIVINGSTON     SNOW      32  32 100 W6        29.73R VSB 1/4

CENTRAL MONTANA


CITY           SKY/WX    TMP DP  RH WIND       PRES   REMARKS
HAVRE          PTSUNNY   34  31  88 SW14      29.65F
LEWISTOWN      CLOUDY    34  30  85 W8        29.68R
GREAT FALLS    CLOUDY    39  23  52 W14       29.69R
CUT BANK       SUNNY     37  21  52 W35G45    29.61R
HELENA         CLOUDY    37  25  61 W12       29.75S
BUTTE          FLURRIES  28  24  85 NW8       29.75F
BOZEMAN        LGT SNOW  33  31  92 W10       29.76S VSB 3/4

WESTERN MONTANA


CITY           SKY/WX    TMP DP  RH WIND       PRES   REMARKS
MISSOULA       PTSUNNY   35  32  88 SE6       29.84F
KALISPELL      NOT AVBL

NORTH DAKOTA


CITY           SKY/WX    TMP DP  RH WIND       PRES   REMARKS
WILLISTON      CLOUDY    38  28  67 SW12      29.62R
DICKINSON      CLOUDY    39  30  70 W20       29.61R
MINOT          SUNNY     41  29  62 W12       29.55S
BISMARCK       MOSUNNY   44  31  60 NW9       29.60F

SOUTHERN SASKATCHEWAN


CITY           SKY/WX    TMP DP  RH WIND       PRES   REMARKS
REGINA         MOSUNNY   37  28  70 W13       29.50S
MOOSE JAW      MOSUNNY   43  27  52 W18G24    29.52F
ESTEVAN        PTSUNNY   36  27  69 SW10      29.55S
SWIFT CURRENT  SUNNY     37  25  60 W15G21    29.53S





USA.gov is the U.S. government's official web portal to all federal, state and local government web resources and services.